Location: *
(47.5000°N, 8.8000°E)
Time: 05:05:56
(UTC+00:00)

Daily predictions for brighter satellites

Satellite Brightness Start Highest point End
(mag) Time Altitude Azimuth Time Altitude Azimuth Time Altitude Azimuth
CZ-2D R/B 4.1 00:01:15 10° NE 00:04:27 21° ENE 00:04:27 21° ENE
Cosmos 2333 Rocket 3.2 00:02:46 10° NNW 00:07:04 43° NNE 00:07:04 43° NNE
Cosmos 2237 Rocket 4.2 00:09:34 10° N 00:14:11 25° NE 00:17:06 17° E
SL-16 R/B 2.9 00:31:33 57° ENE 00:31:33 57° ENE 00:37:38 10° N
Cosmos 2297 Rocket 4.4 00:36:37 15° E 00:36:37 15° E 00:39:43 10° ENE
Meteor 1-11 Rocket 4.4 00:36:48 10° N 00:42:22 54° ENE 00:42:22 54° ENE
USA 234 4.4 00:44:22 10° ENE 00:50:22 40° N 00:56:22 10° WNW
Cosmos 2219 Rocket 3.2 00:45:32 10° NNW 00:49:01 40° NNW 00:49:01 40° NNW
Cosmos 2227 Rocket 3.9 01:02:32 22° ESE 01:02:54 22° E 01:07:07 10° NE
ADEOS II 3.5 01:03:17 10° NE 01:07:49 28° E 01:08:11 28° ESE
COSMOS 2428 3.8 01:06:43 10° NNW 01:10:03 36° NW 01:10:03 36° NW
SJ 16-02 2.8 01:14:58 34° N 01:14:58 34° N 01:17:33 10° NNE
Cosmos 1464 Rocket 4.1 01:07:50 10° NNW 01:13:07 63° NW 01:13:07 63° NW
Cosmos 1980 4.0 01:11:52 10° NNW 01:17:32 64° ENE 01:18:04 60° E
Resurs 1-4 Rocket 2.3 01:14:25 10° NNE 01:18:58 67° NNE 01:18:58 67° NNE
NOSS 0 Rocket 3.8 01:19:06 10° NNW 01:24:55 79° NW 01:24:55 79° NW
ARIANE 5 R/B 3.9 01:25:13 10° NNE 01:29:49 30° E 01:31:01 27° ESE
Cosmos 1816 Rocket 4.5 01:31:04 69° SSE 01:31:48 78° E 01:38:10 10° NNE
SL-16 R/B 3.7 01:30:01 10° NNW 01:35:13 35° NE 01:40:23 10° ESE
H-2A R/B 3.5 01:34:44 30° E 01:35:30 33° ENE 01:39:13 10° N
Cosmos 1908 Rocket 4.3 01:35:50 10° N 01:39:31 51° NE 01:39:31 51° NE
Lacrosse 5 rocket 3.0 01:41:24 28° N 01:41:24 28° N 01:44:06 10° NE
Timation 2 Rocket 4.0 01:39:47 68° WSW 01:40:40 78° WNW 01:47:38 10° NNE
NPP 3.7 01:38:54 10° N 01:44:03 67° NW 01:44:03 67° NW
CZ-2D R/B 2.3 01:40:33 10° N 01:45:47 59° WNW 01:45:47 59° WNW
Cosmos 1634 Rocket 4.1 01:41:38 10° N 01:47:49 69° E 01:50:17 38° SSE
ERS-2 4.0 01:53:19 25° NNW 01:53:19 25° NNW 01:54:56 10° NNW
Cosmos 2333 Rocket 4.1 01:47:30 10° NW 01:49:02 17° WNW 01:49:02 17° WNW
Cosmos 372 Rocket 4.1 01:54:53 63° SE 01:55:20 67° ESE 02:00:32 10° NNE
STARLINK-1048 4.3 01:56:05 52° NNE 01:56:05 52° NNE 01:59:33 10° ENE
CZ-4B R/B 4.0 01:52:01 10° N 01:55:59 44° NW 01:55:59 44° NW
Cosmos 1937 Rocket 3.7 01:56:46 56° WNW 01:56:46 56° WNW 02:01:45 10° NNE
USA 267 3.9 01:51:00 10° ENE 01:57:09 42° SE 01:58:52 35° SSE
STARLINK-24 4.4 01:58:12 48° NNE 01:58:12 48° NNE 02:01:32 10° ENE
SL-08 R/B 3.3 01:58:01 73° SE 01:58:29 84° ENE 02:03:29 10° NNW
Cosmos 2237 Rocket 2.0 01:53:08 10° NNW 01:58:48 71° WSW 01:58:51 71° WSW
STARLINK-1049 4.2 02:00:53 54° N 02:00:53 54° N 02:04:32 10° ENE
Tsikada Rocket 4.0 02:00:24 59° SW 02:01:33 73° W 02:08:00 10° N
CBERS-1 3.9 01:57:26 10° N 02:02:34 73° WNW 02:02:45 72° W
ATLAS 5 CENTAUR R/B 3.9 01:57:50 10° NNW 02:02:48 34° NE 02:08:29 10° E
Cosmos 2034 Rocket 4.4 01:57:56 10° NNW 02:03:51 44° W 02:03:51 44° W
STARLINK-1051 4.1 02:05:41 55° N 02:05:41 55° N 02:09:32 10° ENE
Okean 1 3.8 02:06:03 57° E 02:06:03 57° E 02:09:46 10° NNE
STARLINK-1010 4.2 02:07:29 51° NNW 02:07:32 51° NNW 02:11:40 10° ENE
Meteor 1-27 Rocket 4.1 02:07:19 47° W 02:07:34 47° WNW 02:13:11 10° N
STARLINK-1059 4.2 02:08:19 52° ESE 02:08:19 52° ESE 02:11:46 10° ENE
Cosmos 1898 Rocket 4.4 02:11:46 33° WNW 02:11:57 33° WNW 02:16:39 10° N
STARLINK-1057 3.9 02:13:06 59° ESE 02:13:06 59° ESE 02:16:45 10° ENE
IRS-P3 4.0 02:07:59 10° NNE 02:13:22 82° WNW 02:14:21 60° SSW
STARLINK-1028 4.1 02:15:13 51° NNW 02:15:24 51° NNW 02:19:28 10° ENE
SL-16 R/B 3.6 02:16:38 27° WNW 02:16:38 27° WNW 02:20:46 10° NW
Landsat 5 3.9 02:15:51 40° ESE 02:16:54 54° ENE 02:20:41 10° N
STARLINK-1034 3.7 02:17:53 66° ESE 02:17:53 66° ESE 02:21:44 10° ENE
Sich 1 Rocket 4.1 02:13:54 10° N 02:18:15 56° ENE 02:20:31 26° SE
Cosmos 1743 3.3 02:15:16 10° NNW 02:18:11 48° NNW 02:18:11 48° NNW
Cosmos 1975 3.2 02:15:40 10° N 02:19:41 62° ENE 02:20:39 46° SE
Cosmos 2297 Rocket 2.1 02:18:26 54° SSW 02:19:48 89° WNW 02:25:31 10° NNE
STARLINK-1021 4.2 02:20:02 47° NW 02:20:25 49° NNW 02:24:29 10° ENE
USA 238 DEB 3.6 02:18:58 44° SSW 02:21:17 82° SE 02:28:14 10° NE
USA 238 3.6 02:19:03 44° SSW 02:21:23 81° SE 02:28:21 10° NE
STARLINK-1068 3.6 02:22:39 74° SE 02:22:39 74° SE 02:26:43 10° ENE
BREEZE-M DEB (TANK) 3.2 02:22:14 59° WNW 02:22:52 75° N 02:28:45 10° ENE
STARLINK-1019 4.2 02:24:48 44° NW 02:25:25 48° NNW 02:29:27 10° ENE
STARLINK-81 4.2 02:26:09 43° NW 02:26:43 46° NNW 02:30:37 10° ENE
Helios 1B 4.5 02:26:00 49° SSE 02:27:10 89° NE 02:31:32 10° NNW
STARLINK-1023 4.4 02:27:18 40° NW 02:28:09 46° NNW 02:32:13 10° ENE
STARLINK-54 4.3 02:27:54 40° NW 02:28:36 44° NNW 02:32:29 10° ENE
Cosmos 1048 Rocket 3.9 02:23:31 10° NNW 02:28:52 77° WSW 02:32:51 18° SSE
Cosmos 2219 3.3 02:27:51 47° WSW 02:29:18 61° WNW 02:35:01 10° NNE
STARLINK-77 4.3 02:29:19 40° NW 02:30:02 45° NNW 02:33:56 10° ENE
STARLINK-1012 4.3 02:29:35 40° NW 02:30:26 46° NNW 02:34:27 10° ENE
CZ-2C R/B 3.7 02:26:53 10° NNE 02:30:47 46° E 02:32:21 30° SSE
STARLINK-25 4.3 02:30:54 39° NW 02:31:41 44° NNW 02:35:35 10° ENE
STARLINK-1060 3.4 02:32:12 76° SW 02:32:30 84° SSE 02:36:40 10° ENE
USA 234 3.6 02:26:21 10° ESE 02:32:49 66° NNE 02:39:18 10° NW
STARLINK-71 4.4 02:32:41 36° NW 02:33:36 43° NNW 02:37:28 10° ENE
COBE Rocket 4.2 02:29:16 10° SSE 02:33:57 63° ENE 02:38:35 10° N
STARLINK-79 4.4 02:34:05 37° NW 02:35:02 43° NNW 02:38:54 10° ENE
Cosmos 2279 Rocket 3.9 02:29:01 10° N 02:35:18 86° W 02:40:52 13° S
Meteor 1-28 Rocket 3.0 02:36:21 72° W 02:36:21 72° W 02:39:59 10° NNW
STARLINK-78 4.4 02:35:41 35° NW 02:36:42 43° NNW 02:40:34 10° ENE
Meteor 1-18 Rocket 4.2 02:34:45 35° SSW 02:37:22 86° W 02:43:06 10° N
STARLINK-1030 3.4 02:37:00 69° WSW 02:37:30 89° SSE 02:41:40 10° ENE
STARLINK-57 4.5 02:37:22 33° NW 02:38:29 42° NNW 02:42:20 10° ENE
Cosmos 1125 Rocket 3.6 02:37:44 35° S 02:40:00 79° ESE 02:45:21 10° NNE
STARLINK-49 4.5 02:38:52 33° NW 02:40:02 42° NNW 02:43:54 10° ENE
STARLINK-1026 4.5 02:39:08 33° WNW 02:40:25 43° NNW 02:44:24 10° ENE
GENESIS II 4.2 02:39:54 65° WSW 02:40:27 80° NW 02:44:34 10° NE
STARLINK-27 4.5 02:40:27 32° NW 02:41:41 42° NNW 02:45:32 10° ENE
IRS-1D 4.2 02:37:51 10° N 02:42:25 35° WNW 02:43:17 33° W
STARLINK-1020 3.5 02:41:48 61° WSW 02:42:30 86° NNW 02:46:40 10° ENE
STARLINK-74 4.5 02:42:03 31° NW 02:43:21 41° NNW 02:47:12 10° ENE
NOSS 3-2 (A) 3.4 02:42:50 38° SW 02:45:17 78° NW 02:51:58 10° NE
Cosmos 2227 Rocket 2.2 02:44:22 39° SW 02:46:26 65° WNW 02:52:06 10° NNE
STARLINK-1052 3.5 02:46:34 54° WSW 02:47:27 81° NNW 02:51:38 10° ENE
ADEOS II 2.5 02:42:41 10° N 02:47:41 44° WNW 02:49:08 35° WSW
CENTAUR R/B 2.7 02:46:11 28° SSW 02:49:29 67° ESE 02:56:27 10° NE
CZ-2D R/B 3.4 02:46:13 10° N 02:50:27 73° WNW 02:51:41 44° SSW
Cosmos 1782 Rocket 3.8 02:47:52 10° NNW 02:52:00 45° W 02:52:27 43° WSW
Cosmos 2150 Rocket 4.3 02:50:33 36° WSW 02:52:29 53° WNW 02:57:51 10° NNE
SJ 16-02 3.7 02:51:57 11° NW 02:52:36 11° NW 02:53:45 10° NNW
Cosmos 2298 Rocket 4.4 02:51:31 35° WSW 02:53:16 48° WNW 02:58:27 10° NNE
CZ-4C R/B 4.1 02:54:40 27° NW 02:54:40 27° NW 02:56:26 10° NNW
Okean 1-7 3.5 02:55:06 39° WSW 02:55:51 42° WNW 03:00:04 10° N
STARLINK-1027 3.7 02:55:30 41° W 02:56:54 72° NNW 03:01:10 10° ENE
STARLINK-80 4.2 02:54:28 18° NW 02:57:06 49° NNE 03:00:49 10° E
STARLINK-1033 3.6 02:56:08 42° W 02:57:25 73° NNW 03:01:35 10° ENE
SAR-Lupe-4 3.4 02:57:22 38° S 02:58:36 67° WSW 03:02:10 10° NNW
Resurs 1-4 Rocket 3.8 02:55:41 10° NNW 02:58:50 16° NW 03:00:03 15° WNW
Cosmos 1703 Rocket 4.3 03:00:16 32° W 03:01:00 34° WNW 03:05:07 10° N
IDEFIX/ARIANE 42P 2.6 02:56:14 10° NNE 03:01:28 82° ESE 03:05:38 16° SSW
STARLINK-1038 4.4 03:02:29 28° SSW 03:04:07 42° SE 03:08:03 10° ENE
STARLINK-1031 3.9 03:02:55 33° W 03:04:39 64° NNW 03:08:54 10° ENE
BREEZE-M DEB (TANK) 2.5 03:05:30 33° SSW 03:06:21 41° SSE 03:08:32 10° E
STARLINK-1024 3.8 03:05:41 33° W 03:07:24 65° NNW 03:11:32 10° ENE
Cosmos 2180 Rocket 4.5 03:01:59 10° NNW 03:08:07 63° W 03:14:18 10° S
ARIANE 5 R/B 3.1 03:04:08 10° N 03:09:00 41° WNW 03:11:22 26° WSW
STARLINK-1046 4.3 03:07:16 27° SSW 03:09:05 46° SE 03:13:03 10° ENE
CZ-4B R/B 1.5 03:06:15 10° SSE 03:09:44 83° ENE 03:13:14 10° NNW
CZ-2C R/B 3.7 03:06:31 10° NNE 03:10:45 35° E 03:14:56 10° SSE
Spot 4 Rocket 4.3 03:05:45 10° N 03:10:46 52° WNW 03:13:36 25° SW
BREEZE-M DEB (TANK) 3.5 03:05:58 10° WNW 03:10:52 32° SW 03:14:24 10° SSE
H-2A R/B 3.0 03:11:49 25° W 03:11:49 25° W 03:15:01 10° NW
STARLINK-1035 3.8 03:10:27 29° W 03:12:22 62° NNW 03:16:30 10° ENE
STARLINK-1039 4.2 03:12:03 26° SSW 03:14:03 49° SE 03:18:04 10° ENE
Cosmos 967 Rocket 4.5 03:09:13 10° NW 03:15:37 64° WSW 03:21:54 10° SSE
SAR-Lupe-1 4.3 03:14:18 25° SSW 03:16:00 46° W 03:19:30 10° NNW
STARLINK-43 3.2 03:13:52 19° WNW 03:16:22 73° SSW 03:20:04 10° SE
NOSS 3-2 (C) 3.4 03:13:20 24° SW 03:17:04 75° NW 03:23:46 10° NE
STARLINK-1032 3.9 03:15:15 26° W 03:17:22 59° NNW 03:21:29 10° ENE
Meteor 1-4 Rocket 3.0 03:13:54 12° S 03:17:23 64° E 03:21:07 10° NNE
Cosmos 389 Rocket 2.6 03:17:04 31° SW 03:18:27 53° WNW 03:21:56 10° N
STARLINK-1045 4.1 03:16:50 25° SSW 03:19:01 53° SE 03:23:03 10° ENE
SL-16 R/B 2.5 03:14:07 10° NW 03:19:28 44° WSW 03:24:47 10° S
Lacrosse 5 rocket 3.4 03:17:41 10° NW 03:20:39 20° N 03:23:44 10° NE
STARLINK-26 3.8 03:18:23 12° WNW 03:21:30 56° NNE 03:24:55 10° ESE
STARLINK 1040 4.0 03:20:14 14° NW 03:22:15 34° NNE 03:24:48 10° E
STARLINK-1011 4.0 03:20:02 24° W 03:22:22 57° NNW 03:26:29 10° ENE
Meteor 1-13 Rocket 4.3 03:17:24 10° S 03:23:08 83° E 03:28:47 10° NNE
STARLINK-55 4.1 03:20:32 12° NW 03:23:21 43° NNE 03:26:26 10° E
Cosmos 2082 3.9 03:20:11 22° SW 03:23:52 57° WNW 03:29:32 10° NNE
STARLINK-1050 3.9 03:21:38 23° SW 03:23:59 58° SE 03:28:04 10° ENE
CZ-2D R/B 4.3 03:23:14 10° NNW 03:24:55 11° NW 03:26:37 10° WNW
ADEOS 4.2 03:19:55 10° NNE 03:25:04 57° E 03:30:12 10° S
deb Chang Zheng 4 3.5 03:21:01 10° N 03:25:20 68° WNW 03:28:51 15° SSW
Cosmos 1674 Rocket 3.9 03:21:11 10° S 03:25:33 67° E 03:29:54 10° NNE
STARLINK-28 3.9 03:24:21 11° NW 03:27:20 46° NNE 03:30:27 10° E
STARLINK-1036 4.1 03:24:50 21° W 03:27:23 54° NNW 03:31:29 10° ENE
STARLINK-1055 3.8 03:26:25 22° SW 03:28:57 63° SSE 03:33:03 10° ENE
PAYLOAD A 4.4 03:25:23 10° NNE 03:30:48 69° ESE 03:36:02 10° S
STARLINK-1044 4.1 03:29:37 19° W 03:32:23 52° NNW 03:36:28 10° ENE
Okean 3 3.8 03:30:21 19° SW 03:33:03 44° WNW 03:37:05 10° N
STARLINK-33 3.9 03:30:24 10° WNW 03:33:32 46° NNE 03:36:39 10° E
STARLINK-1022 3.8 03:31:13 20° SW 03:33:56 67° SSE 03:38:03 10° ENE
STARLINK-1047 4.2 03:34:23 17° W 03:37:22 50° NNW 03:41:25 10° ENE
Meteor 1-12 Rocket 4.4 03:31:47 10° NNW 03:37:36 55° W 03:43:17 10° S
STARLINK-1037 4.2 03:35:01 17° W 03:38:01 50° NNW 03:42:05 10° ENE
STARLINK-66 3.8 03:35:31 10° WNW 03:38:40 49° NNE 03:41:49 10° E
STARLINK-1042 3.7 03:35:59 19° SW 03:38:53 72° SSE 03:43:02 10° ENE
COSMOS 2441 4.3 03:34:57 10° N 03:39:45 75° WNW 03:44:32 10° SSW
USA 267 3.4 03:33:55 10° NE 03:40:27 73° NNW 03:46:14 14° WSW
STARLINK-58 4.4 03:37:32 10° NW 03:40:30 34° NNE 03:43:28 10° E
Cosmos 2237 Rocket 4.1 03:40:20 10° W 03:40:36 10° W 03:40:36 10° W
Cosmos 1603 3.7 03:36:51 10° NNW 03:42:30 86° ENE 03:48:09 10° SSE
SeaSat 1 2.6 03:37:45 10° SE 03:42:40 79° ENE 03:47:38 10° NNW
STARLINK-1056 3.7 03:40:46 17° SW 03:43:52 77° SSE 03:48:02 10° ENE
Meteor 1-15 Rocket 4.3 03:38:35 10° N 03:44:13 84° E 03:49:53 10° SSE
Cosmos 1300 Rocket 4.1 03:40:51 10° NNW 03:44:49 36° W 03:48:46 10° SSW
ATLAS 3B R/B 2.7 03:40:36 11° SW 03:47:11 88° SE 03:53:52 10° NE
STARLINK-1059 4.3 03:43:57 14° W 03:47:22 47° NNW 03:51:24 10° ENE
ATLAS 5 CENTAUR R/B 2.4 03:42:11 10° NW 03:47:53 68° SW 03:54:30 10° SSE
Cosmos 1818 4.0 03:43:32 10° NW 03:48:34 39° WSW 03:53:35 10° S
Cosmos 2221 Rocket 4.4 03:45:25 14° SW 03:48:39 32° WNW 03:52:39 10° N
STARLINK-1054 3.6 03:45:32 16° WSW 03:48:49 82° SSE 03:52:59 10° ENE
STARLINK-75 3.7 03:46:02 10° WNW 03:49:12 52° NNE 03:52:22 10° E
STARLINK-1057 4.4 03:48:44 12° W 03:52:23 45° NNW 03:56:23 10° ENE
STARLINK-1062 3.6 03:50:19 14° WSW 03:53:48 87° SSE 03:57:58 10° ENE
Okean 2 Rocket 4.2 03:51:01 10° NNW 03:54:45 26° W 03:58:28 10° SW
Cosmos 2263 Rocket 2.6 03:49:32 10° SSW 03:55:09 66° ESE 04:00:49 10° NNE
Cosmos 1689 Rocket 2.3 03:52:52 10° S 03:55:45 45° W 03:58:39 10° NNW
Cosmos 2151 Rocket 4.2 03:52:21 10° NNW 03:56:20 34° W 04:00:17 10° SSW
PSLV R/B 3.8 03:52:51 10° N 03:57:06 51° WNW 04:01:20 10° SW
STARLINK-1034 4.4 03:53:31 11° W 03:57:23 44° NNW 04:01:23 10° ENE
BREEZE-M DEB (TANK) 1.9 03:55:10 10° WNW 03:58:41 84° SSW 04:00:56 10° ESE
STARLINK-1053 3.6 03:55:07 13° WSW 03:58:48 88° NNW 04:02:58 10° ENE
Cosmos 1437 Rocket 3.6 03:55:32 10° S 03:59:33 56° E 04:03:33 10° NNE
STARLINK-1029 4.3 03:57:35 10° NW 04:00:31 35° NNE 04:03:27 10° E
STARLINK-34 4.1 03:59:02 10° NW 04:02:06 41° NNE 04:05:09 10° E
STARLINK-1068 4.5 03:58:24 10° W 04:02:22 43° NNW 04:06:21 10° ENE
STARLINK-62 4.1 03:59:58 10° NW 04:03:02 41° NNE 04:06:06 10° E
Cosmos 1867 3.7 03:58:08 10° SSW 04:03:35 84° SE 04:09:05 10° NE
STARLINK-1061 3.6 03:59:52 12° WSW 04:03:44 83° NNW 04:07:55 10° ENE
Cosmos 1378 Rocket 3.5 03:59:48 10° SSW 04:04:06 66° W 04:08:29 10° N
Cosmos 2297 Rocket 3.8 04:00:33 10° W 04:04:40 20° NW 04:08:50 10° N
CZ-2C R/B 4.5 04:02:03 10° NNW 04:04:53 19° WNW 04:07:41 10° WSW
STARLINK-22 3.6 04:02:14 10° WNW 04:05:26 55° NNE 04:08:37 10° ESE
Cosmos 1092 Rocket 4.1 04:01:50 10° SSW 04:08:06 63° WNW 04:14:23 10° N
STARLINK-1067 3.7 04:04:40 10° WSW 04:08:45 79° NNW 04:12:55 10° ENE
Aureole 3 Rocket 3.2 04:05:42 10° N 04:10:22 70° ENE 04:13:51 10° SSE
Meteor 1-31 Rocket 3.0 04:08:29 10° NNE 04:12:27 76° ESE 04:16:22 10° S
ATLAS CENTAUR R/B 2.0 04:11:39 10° W 04:13:26 28° NNW 04:16:05 10° NE
STARLINK-1058 3.7 04:09:34 10° WSW 04:13:42 75° NNW 04:17:52 10° ENE
USA 234 3.5 04:09:41 10° SSE 04:15:59 49° SW 04:22:18 10° WNW
Geosat 4.1 04:11:54 10° NNE 04:16:52 62° WNW 04:21:49 10° SW
STARLINK-1043 3.7 04:14:35 10° WSW 04:18:43 71° NNW 04:22:52 10° ENE
STARLINK-48 3.5 04:15:03 10° WNW 04:18:58 87° NNE 04:22:52 10° ESE
Cosmos 2026 Rocket 4.0 04:13:00 10° SSW 04:19:03 69° W 04:25:07 10° N
STARLINK-1065 3.7 04:15:12 10° WSW 04:19:20 70° NNW 04:23:28 10° ENE
Cosmos 2251 Rocket 3.5 04:15:13 10° NNW 04:20:34 70° WSW 04:25:50 10° S
